Showing default

RAISE-4, 67073

Orbit data source: Space-Track

RAISE-4, 67073 is a payload satellite owned by JAXA (JP) in SSO that was launched on Sun, 14 Dec 2025 UTC via an ELECTRON launch vehicle from the Rocket Lab Launch Complex (RLLC). Payload-class satellites include a variety of spacecraft equipped with specific instruments for various scientific and technological missions. These include communications satellites like Starlink; space stations such as the ISS; scientific satellites like the Hubble; Earth observation satellites from companies like Planet Labs, Umbra, and HawkEye 360; GPS; miniature CubeSats for education and research; and military/defense satellites.

Loading next visibility...
Identifier
67073, 2025-297B
Orbit
SSO
Country
Flag of JPJP / JPN
Related business
Manufacturer
MHI
Mission
Operational Civil Technology
Bus & Motor
RAPIS, Unknown motor
Mass
110 kg wet, 110 kg dry
Launch date (UTC)
2025-12-14 (6 months ago)
Launch vehicle
ELECTRON
Launch site
Rocket Lab Launch Complex (RLLC)
Object type
Payload
Rocket body
Debris
Shape & HBR
Box, 14.5 m
Radar Cross Section
1.120 m², Medium (>0.1 m² and < 1m²)

Expand to show TLE details & history
Last TLE update: 11 hours ago

TLE from 11 hours ago
0 RAISE-4
1 67073U 25297B   26171.38518941  .00002458  00000-0  15907-3 0  9998
2 67073  97.5126 319.3737 0012927  32.5962 327.6062 15.09030442 28370
Epoch: 2026-06-20T09:14Z
TLE epoch observation values (Epoch: 2026-06-20T09:14:40.365Z)
Latitude
-0.00003°
Longitude
-87.89506°
Altitude
534.685 km
Speed
7.599 km/s
True Right ascension
21h 17m 29s
True Declination
0° 00' 00"
Sunlit
Object was in full shadow at epoch
Visualization orbit readout
Latitude
Unknown
Longitude
Unknown
Altitude
Unknown
Speed
Unknown
Apparent Right ascension
Unknown
Apparent Declination
Unknown
Sunlit
N/A
Visualization observer readout
Local Sidereal Time
07:13:05
Azimuth
Unknown
Elevation
Unknown
Doppler factor
Unknown
Orbital elements
Apogee altitude
545.084 km
Perigee altitude
527.208 km
Semi-major axis
6,914.283 km
Eccentricity
0.00129
Inclination
97.5126°
RAAN
319.3737°
Arg. of periapsis
32.5962°
True anomaly
327.52673°
Mean anomaly
327.6062°
Eccentric anomaly
327.56648°
Mean motion
3.77505 °/min
Orbital period
95.36 mins
BSTAR
0.00015907
Loading maneuver chart data...
Computing Atmospheric mass density...
Loading historical data...
Loading historical data...
Loading historical data...
Loading historical data...
Loading historical data...
Loading historical data...
Loading historical data...
Other satellites on launch #297 in the year 2025 (2025-12-14 UTC)

Documentation

Showing up to 5 results
|